Time,TemperatureF,DewpointF,PressureIn,WindDirection,WindDirectionDegrees,WindSpeedMPH,WindSpeedGustMPH,Humidity,HourlyPrecipIn,Conditions,Clouds,dailyrainin,SoftwareType,DateUTC
2013-03-21 00:04:00,11.2,2.2,29.99,NNW,330,2.8,4.0,66,0.00,,,0.00,WUHU216HW,2013-03-21 05:04:00,
2013-03-21 00:14:00,10.8,1.8,29.99,NW,312,3.6,6.2,66,0.00,,,0.00,WUHU216HW,2013-03-21 05:14:00,
2013-03-21 00:25:00,10.4,1.7,29.99,WNW,300,3.8,6.9,67,0.00,,,0.00,WUHU216HW,2013-03-21 05:25:00,
2013-03-21 00:35:00,10.3,1.6,29.99,NW,319,2.8,4.4,67,0.00,,,0.00,WUHU216HW,2013-03-21 05:35:00,
2013-03-21 00:45:00,9.9,1.6,29.99,WNW,298,3.6,5.2,68,0.00,,,0.00,WUHU216HW,2013-03-21 05:45:00,
2013-03-21 00:55:00,9.9,1.6,29.99,WNW,300,4.2,5.9,68,0.00,,,0.00,WUHU216HW,2013-03-21 05:55:00,
2013-03-21 01:06:00,9.7,1.4,29.98,NW,304,3.6,6.2,68,0.00,,,0.00,WUHU216HW,2013-03-21 06:06:00,
2013-03-21 01:17:00,9.7,1.4,29.98,NW,321,3.1,5.2,68,0.00,,,0.00,WUHU216HW,2013-03-21 06:17:00,
2013-03-21 01:27:00,9.4,1.4,29.98,NW,314,3.5,5.2,69,0.00,,,0.00,WUHU216HW,2013-03-21 06:27:00,
2013-03-21 01:37:00,9.0,1.0,29.99,WNW,301,3.1,6.2,69,0.00,,,0.00,WUHU216HW,2013-03-21 06:37:00,
2013-03-21 01:48:00,8.8,1.1,29.99,WNW,295,3.5,5.6,70,0.00,,,0.00,WUHU216HW,2013-03-21 06:48:00,
2013-03-21 01:58:00,8.5,0.8,29.98,WNW,286,3.5,5.9,70,0.00,,,0.00,WUHU216HW,2013-03-21 06:58:00,
2013-03-21 02:09:00,8.5,0.8,29.98,NW,310,3.0,4.2,70,0.00,,,0.00,WUHU216HW,2013-03-21 07:09:00,
2013-03-21 02:19:00,9.0,1.3,29.98,NNW,334,1.6,2.2,70,0.00,,,0.00,WUHU216HW,2013-03-21 07:19:00,
2013-03-21 02:30:00,9.0,1.3,29.98,NW,317,2.0,3.7,70,0.00,,,0.00,WUHU216HW,2013-03-21 07:30:00,
2013-03-21 02:40:00,8.5,0.8,29.98,West,279,1.4,2.2,70,0.00,,,0.00,WUHU216HW,2013-03-21 07:40:00,
2013-03-21 02:50:00,7.9,0.3,29.97,West,278,2.7,5.2,70,0.00,,,0.00,WUHU216HW,2013-03-21 07:50:00,
2013-03-21 03:01:00,8.1,1.0,29.97,WNW,286,2.8,4.7,72,0.00,,,0.00,WUHU216HW,2013-03-21 08:01:00,
2013-03-21 03:11:00,8.6,1.5,29.97,NW,322,1.8,3.0,72,0.00,,,0.00,WUHU216HW,2013-03-21 08:11:00,
2013-03-21 03:22:00,8.3,1.2,29.96,NW,316,1.3,2.8,72,0.00,,,0.00,WUHU216HW,2013-03-21 08:22:00,
2013-03-21 03:32:00,7.9,0.5,29.96,WNW,284,1.2,2.2,71,0.00,,,0.00,WUHU216HW,2013-03-21 08:32:00,
2013-03-21 03:42:00,7.6,0.3,29.96,West,270,2.0,3.2,71,0.00,,,0.00,WUHU216HW,2013-03-21 08:42:00,
2013-03-21 03:53:00,7.2,-0.1,29.96,WNW,287,1.2,2.0,71,0.00,,,0.00,WUHU216HW,2013-03-21 08:53:00,
2013-03-21 04:03:00,7.4,0.4,29.96,NW,315,0.7,1.2,72,0.00,,,0.00,WUHU216HW,2013-03-21 09:03:00,
2013-03-21 04:14:00,7.4,0.4,29.96,West,281,1.6,2.8,72,0.00,,,0.00,WUHU216HW,2013-03-21 09:14:00,
2013-03-21 04:24:00,7.0,0.0,29.96,WNW,296,1.0,1.8,72,0.00,,,0.00,WUHU216HW,2013-03-21 09:24:00,
2013-03-21 04:35:00,7.6,0.8,29.96,NNW,339,0.3,0.4,73,0.00,,,0.00,WUHU216HW,2013-03-21 09:35:00,
2013-03-21 04:45:00,7.6,0.8,29.96,NNW,328,1.1,2.8,73,0.00,,,0.00,WUHU216HW,2013-03-21 09:45:00,
2013-03-21 04:55:00,7.9,1.1,29.96,WNW,282,1.8,3.0,73,0.00,,,0.00,WUHU216HW,2013-03-21 09:55:00,
2013-03-21 05:06:00,7.0,-0.3,29.96,WSW,249,1.0,2.4,71,0.00,,,0.00,WUHU216HW,2013-03-21 10:06:00,
2013-03-21 05:16:00,6.7,-0.6,29.96,SW,234,1.2,2.0,71,0.00,,,0.00,WUHU216HW,2013-03-21 10:16:00,
2013-03-21 05:27:00,6.5,-0.5,29.96,WSW,244,1.6,2.0,72,0.00,,,0.00,WUHU216HW,2013-03-21 10:27:00,
2013-03-21 05:37:00,7.2,0.5,29.96,WNW,284,2.1,2.8,73,0.00,,,0.00,WUHU216HW,2013-03-21 10:37:00,
2013-03-21 05:47:00,7.9,1.1,29.96,WNW,298,3.0,4.0,73,0.00,,,0.00,WUHU216HW,2013-03-21 10:47:00,
2013-03-21 05:57:00,8.5,2.0,29.96,WNW,300,1.9,3.4,74,0.00,,,0.00,WUHU216HW,2013-03-21 10:57:00,
2013-03-21 06:08:00,8.5,1.7,29.96,WNW,287,1.4,2.4,73,0.00,,,0.00,WUHU216HW,2013-03-21 11:08:00,
2013-03-21 06:19:00,8.3,1.5,29.96,WNW,301,2.5,4.0,73,0.00,,,0.00,WUHU216HW,2013-03-21 11:19:00,
2013-03-21 06:29:00,7.9,1.1,29.97,West,265,1.6,3.0,73,0.00,,,0.00,WUHU216HW,2013-03-21 11:29:00,
2013-03-21 06:39:00,7.2,0.5,29.97,WSW,245,1.3,2.4,73,0.00,,,0.00,WUHU216HW,2013-03-21 11:39:00,
2013-03-21 06:49:00,7.0,0.3,29.97,WNW,291,1.5,2.8,73,0.00,,,0.00,WUHU216HW,2013-03-21 11:49:00,
2013-03-21 06:59:00,7.0,0.2,29.97,WSW,254,1.1,3.2,73,0.00,,,0.00,WUHU216HW,2013-03-21 11:59:00,
2013-03-21 07:11:00,7.5,1.0,29.97,West,277,2.0,4.4,74,0.00,,,0.00,WUHU216HW,2013-03-21 12:11:00,
2013-03-21 07:21:00,9.2,2.9,29.97,WNW,294,2.2,3.7,75,0.00,,,0.00,WUHU216HW,2013-03-21 12:21:00,
2013-03-21 07:31:00,11.8,4.9,29.97,WNW,298,2.6,4.2,73,0.00,,,0.00,WUHU216HW,2013-03-21 12:31:00,
2013-03-21 07:42:00,13.5,5.9,29.97,WNW,303,2.2,3.7,71,0.00,,,0.00,WUHU216HW,2013-03-21 12:42:00,
2013-03-21 07:52:00,15.3,7.1,29.97,NW,305,2.0,3.0,69,0.00,,,0.00,WUHU216HW,2013-03-21 12:52:00,
2013-03-21 08:02:00,13.6,4.5,29.97,NNW,342,0.9,1.2,66,0.00,,,0.00,WUHU216HW,2013-03-21 13:02:00,
2013-03-21 08:13:00,15.3,5.8,29.96,NNW,332,0.8,2.0,65,0.00,,,0.00,WUHU216HW,2013-03-21 13:13:00,
2013-03-21 08:24:00,16.8,5.8,29.96,NNW,339,0.8,1.2,61,0.00,,,0.00,WUHU216HW,2013-03-21 13:24:00,
2013-03-21 08:34:00,17.7,7.0,29.96,NW,326,0.9,2.0,62,0.00,,,0.00,WUHU216HW,2013-03-21 13:34:00,
2013-03-21 08:44:00,20.3,9.4,29.96,WSW,239,1.7,2.8,62,0.00,,,0.00,WUHU216HW,2013-03-21 13:44:00,
2013-03-21 08:54:00,20.2,8.3,29.96,WSW,258,1.8,3.2,59,0.00,,,0.00,WUHU216HW,2013-03-21 13:54:00,
2013-03-21 09:05:00,20.5,7.8,29.98,West,276,3.2,7.9,57,0.00,,,0.00,WUHU216HW,2013-03-21 14:05:00,
2013-03-21 09:16:00,16.4,5.4,29.98,NW,313,3.9,5.4,61,0.00,,,0.00,WUHU216HW,2013-03-21 14:16:00,
2013-03-21 09:26:00,16.8,5.7,29.98,NW,321,3.3,4.4,61,0.00,,,0.00,WUHU216HW,2013-03-21 14:26:00,
2013-03-21 09:36:00,18.0,6.5,29.99,NW,308,4.3,8.4,60,0.00,,,0.00,WUHU216HW,2013-03-21 14:36:00,
2013-03-21 09:47:00,15.7,4.8,29.99,NNW,335,3.2,4.2,61,0.00,,,0.00,WUHU216HW,2013-03-21 14:47:00,
2013-03-21 09:57:00,17.7,7.0,29.99,NW,311,4.5,6.2,62,0.00,,,0.00,WUHU216HW,2013-03-21 14:57:00,
2013-03-21 10:08:00,19.4,8.2,29.99,WNW,288,5.4,8.4,61,0.00,,,0.00,WUHU216HW,2013-03-21 15:08:00,
2013-03-21 10:18:00,17.5,7.5,29.99,NW,318,4.2,6.9,64,0.00,,,0.00,WUHU216HW,2013-03-21 15:18:00,
2013-03-21 10:28:00,17.7,7.3,29.99,WNW,303,3.5,5.9,63,0.00,,,0.00,WUHU216HW,2013-03-21 15:28:00,
2013-03-21 10:39:00,16.3,7.1,29.99,NW,326,4.2,4.9,66,0.00,,,0.00,WUHU216HW,2013-03-21 15:39:00,
2013-03-21 10:49:00,17.9,8.2,30.00,NW,311,4.3,5.9,65,0.00,,,0.00,WUHU216HW,2013-03-21 15:49:00,
2013-03-21 10:59:00,20.2,9.4,29.99,WNW,288,5.4,8.6,62,0.00,,,0.00,WUHU216HW,2013-03-21 15:59:00,
2013-03-21 11:10:00,19.1,8.7,29.99,NW,309,4.2,6.9,63,0.00,,,0.00,WUHU216HW,2013-03-21 16:10:00,
2013-03-21 11:21:00,19.4,9.6,29.99,NNW,332,5.0,6.9,65,0.00,,,0.00,WUHU216HW,2013-03-21 16:21:00,
2013-03-21 11:31:00,19.7,9.6,30.00,NW,326,4.0,6.6,64,0.00,,,0.00,WUHU216HW,2013-03-21 16:31:00,
2013-03-21 11:41:00,20.6,10.1,29.99,NNW,331,4.2,5.9,63,0.00,,,0.00,WUHU216HW,2013-03-21 16:41:00,
2013-03-21 11:52:00,19.5,9.7,29.99,North,354,4.8,6.2,65,0.00,,,0.00,WUHU216HW,2013-03-21 16:52:00,
2013-03-21 12:02:00,19.4,9.7,29.99,NNW,338,4.7,5.9,65,0.00,,,0.00,WUHU216HW,2013-03-21 17:02:00,
2013-03-21 12:13:00,20.1,10.0,29.99,NNW,342,3.9,5.2,64,0.00,,,0.00,WUHU216HW,2013-03-21 17:13:00,
2013-03-21 12:23:00,20.3,10.2,30.00,NNW,340,4.2,5.4,64,0.00,,,0.00,WUHU216HW,2013-03-21 17:23:00,
2013-03-21 12:33:00,20.7,10.6,29.99,North,3,4.1,5.9,64,0.00,,,0.00,WUHU216HW,2013-03-21 17:33:00,
2013-03-21 12:44:00,20.7,10.6,29.99,NNW,347,5.1,6.4,64,0.00,,,0.00,WUHU216HW,2013-03-21 17:44:00,
2013-03-21 12:54:00,21.6,11.1,29.99,North,352,4.8,7.4,63,0.00,,,0.00,WUHU216HW,2013-03-21 17:54:00,
2013-03-21 13:04:00,21.9,11.0,29.99,North,349,4.9,7.6,62,0.00,,,0.00,WUHU216HW,2013-03-21 18:04:00,
2013-03-21 13:15:00,22.1,11.2,29.99,North,358,4.0,5.9,62,0.01,,,0.01,WUHU216HW,2013-03-21 18:15:00,
2013-03-21 13:25:00,22.5,11.2,29.99,NNW,345,4.2,4.7,61,0.01,,,0.01,WUHU216HW,2013-03-21 18:25:00,
2013-03-21 13:36:00,22.7,11.4,29.99,NNW,336,4.5,6.9,61,0.01,,,0.01,WUHU216HW,2013-03-21 18:36:00,
2013-03-21 13:46:00,23.3,11.5,29.98,NW,323,5.3,8.6,60,0.01,,,0.01,WUHU216HW,2013-03-21 18:46:00,
2013-03-21 13:57:00,24.6,12.4,29.98,NW,313,6.4,7.6,59,0.01,,,0.01,WUHU216HW,2013-03-21 18:57:00,
2013-03-21 14:07:00,24.9,12.7,29.98,WNW,294,5.7,6.9,59,0.01,,,0.01,WUHU216HW,2013-03-21 19:07:00,
2013-03-21 14:17:00,25.7,12.6,29.98,West,270,5.6,7.2,57,0.00,,,0.01,WUHU216HW,2013-03-21 19:17:00,
2013-03-21 14:28:00,25.6,13.0,29.97,NW,312,4.9,7.4,58,0.00,,,0.01,WUHU216HW,2013-03-21 19:28:00,
2013-03-21 14:38:00,24.3,12.2,29.97,NW,323,4.6,6.2,59,0.00,,,0.01,WUHU216HW,2013-03-21 19:38:00,
2013-03-21 14:49:00,26.2,13.1,29.97,West,281,5.3,8.6,57,0.00,,,0.01,WUHU216HW,2013-03-21 19:49:00,
2013-03-21 14:59:00,25.8,12.8,29.97,WNW,287,5.3,6.9,57,0.00,,,0.01,WUHU216HW,2013-03-21 19:59:00,
2013-03-21 15:10:00,25.4,12.4,29.97,NW,306,4.6,7.6,57,0.00,,,0.01,WUHU216HW,2013-03-21 20:10:00,
2013-03-21 15:20:00,25.2,12.6,29.97,WNW,296,4.7,6.2,58,0.00,,,0.01,WUHU216HW,2013-03-21 20:20:00,
2013-03-21 15:30:00,26.8,14.1,29.97,WSW,253,4.9,7.6,58,0.00,,,0.01,WUHU216HW,2013-03-21 20:30:00,
2013-03-21 15:41:00,26.9,13.3,29.96,WSW,248,5.6,9.1,56,0.00,,,0.01,WUHU216HW,2013-03-21 20:41:00,
2013-03-21 15:51:00,26.7,12.8,29.97,West,276,4.9,8.4,55,0.00,,,0.01,WUHU216HW,2013-03-21 20:51:00,
2013-03-21 16:02:00,26.8,13.3,29.97,WSW,258,4.7,9.8,56,0.00,,,0.01,WUHU216HW,2013-03-21 21:02:00,
2013-03-21 16:12:00,26.5,12.5,29.97,WSW,257,6.4,9.4,55,0.00,,,0.01,WUHU216HW,2013-03-21 21:12:00,
2013-03-21 16:22:00,26.5,12.2,29.97,West,264,5.2,9.6,54,0.00,,,0.01,WUHU216HW,2013-03-21 21:22:00,
2013-03-21 16:33:00,26.6,12.3,29.97,West,273,5.8,7.2,54,0.00,,,0.01,WUHU216HW,2013-03-21 21:33:00,
2013-03-21 16:43:00,26.5,12.6,29.96,West,261,4.2,7.2,55,0.00,,,0.01,WUHU216HW,2013-03-21 21:43:00,
2013-03-21 16:53:00,27.0,13.0,29.96,WNW,284,4.3,6.4,55,0.00,,,0.01,WUHU216HW,2013-03-21 21:53:00,
2013-03-21 17:03:00,26.8,12.9,29.96,SW,233,5.7,7.9,55,0.00,,,0.01,WUHU216HW,2013-03-21 22:03:00,
2013-03-21 17:14:00,26.7,12.8,29.96,WSW,247,5.4,9.8,55,0.00,,,0.01,WUHU216HW,2013-03-21 22:14:00,
2013-03-21 17:25:00,26.7,13.2,29.96,West,264,4.0,6.6,56,0.00,,,0.01,WUHU216HW,2013-03-21 22:25:00,
2013-03-21 17:35:00,26.4,12.5,29.96,WSW,243,4.3,5.9,55,0.00,,,0.01,WUHU216HW,2013-03-21 22:35:00,
2013-03-21 17:45:00,26.1,12.6,29.96,WNW,299,3.7,6.4,56,0.00,,,0.01,WUHU216HW,2013-03-21 22:45:00,
2013-03-21 17:56:00,26.1,12.6,29.96,West,278,3.2,4.9,56,0.00,,,0.01,WUHU216HW,2013-03-21 22:56:00,
2013-03-21 18:07:00,26.0,12.9,29.97,West,260,2.9,4.2,57,0.00,,,0.01,WUHU216HW,2013-03-21 23:07:00,
2013-03-21 18:17:00,25.7,12.6,29.96,WNW,286,2.5,4.9,57,0.00,,,0.01,WUHU216HW,2013-03-21 23:17:00,
2013-03-21 18:27:00,25.3,12.2,29.97,WNW,286,3.0,4.7,57,0.00,,,0.01,WUHU216HW,2013-03-21 23:27:00,
2013-03-21 18:38:00,25.0,12.4,29.97,WSW,248,1.8,2.8,58,0.00,,,0.01,WUHU216HW,2013-03-21 23:38:00,
2013-03-21 18:48:00,24.5,12.3,29.96,West,270,2.3,3.4,59,0.00,,,0.01,WUHU216HW,2013-03-21 23:48:00,
2013-03-21 18:58:00,23.9,11.8,29.96,WSW,252,2.3,4.7,59,0.00,,,0.01,WUHU216HW,2013-03-21 23:58:00,
2013-03-21 19:09:00,23.4,11.3,29.96,WSW,237,2.1,4.7,59,0.00,,,0.01,WUHU216HW,2013-03-22 00:09:00,
2013-03-21 19:19:00,22.5,10.8,29.96,WSW,242,1.5,2.0,60,0.00,,,0.01,WUHU216HW,2013-03-22 00:19:00,
2013-03-21 19:30:00,21.8,10.1,29.96,WSW,243,1.0,1.2,60,0.00,,,0.01,WUHU216HW,2013-03-22 00:30:00,
2013-03-21 19:40:00,21.1,9.9,29.96,SW,236,0.9,1.2,61,0.00,,,0.01,WUHU216HW,2013-03-22 00:40:00,
2013-03-21 19:50:00,20.5,9.3,29.96,SW,230,1.3,1.8,61,0.00,,,0.01,WUHU216HW,2013-03-22 00:50:00,
2013-03-21 20:00:00,20.0,9.2,29.96,SW,225,1.3,2.0,62,0.00,,,0.01,WUHU216HW,2013-03-22 01:00:00,
2013-03-21 20:11:00,19.4,9.0,29.96,SW,231,1.1,1.4,63,0.00,,,0.01,WUHU216HW,2013-03-22 01:11:00,
2013-03-21 20:22:00,19.1,8.7,29.97,SW,232,1.3,1.4,63,0.00,,,0.01,WUHU216HW,2013-03-22 01:22:00,
2013-03-21 20:32:00,18.7,8.3,29.97,SW,232,1.9,2.2,63,0.00,,,0.01,WUHU216HW,2013-03-22 01:32:00,
2013-03-21 20:42:00,18.4,8.4,29.97,SW,231,1.6,2.2,64,0.00,,,0.01,WUHU216HW,2013-03-22 01:42:00,
2013-03-21 20:53:00,18.0,8.0,29.97,SW,227,1.2,1.8,64,0.00,,,0.01,WUHU216HW,2013-03-22 01:53:00,
2013-03-21 21:03:00,17.5,7.9,29.97,SW,234,0.9,1.2,65,0.00,,,0.01,WUHU216HW,2013-03-22 02:03:00,
2013-03-21 21:14:00,17.3,7.7,29.98,WSW,251,0.8,1.2,65,0.00,,,0.01,WUHU216HW,2013-03-22 02:14:00,
2013-03-21 21:24:00,16.9,7.6,29.98,WSW,248,0.6,0.8,66,0.00,,,0.01,WUHU216HW,2013-03-22 02:24:00,
2013-03-21 21:34:00,16.7,7.4,29.98,WSW,248,0.9,1.2,66,0.00,,,0.01,WUHU216HW,2013-03-22 02:34:00,
2013-03-21 21:45:00,16.6,7.7,29.98,WSW,240,1.2,1.4,67,0.00,,,0.01,WUHU216HW,2013-03-22 02:45:00,
2013-03-21 21:55:00,16.6,8.0,29.99,WSW,238,1.0,1.4,68,0.00,,,0.01,WUHU216HW,2013-03-22 02:55:00,
2013-03-21 22:06:00,16.7,8.1,29.99,West,266,0.8,1.0,68,0.00,,,0.01,WUHU216HW,2013-03-22 03:06:00,
2013-03-21 22:16:00,16.6,8.3,29.99,West,270,0.5,1.2,69,0.00,,,0.01,WUHU216HW,2013-03-22 03:16:00,
2013-03-21 22:27:00,16.2,7.9,29.99,West,262,1.1,1.8,69,0.00,,,0.01,WUHU216HW,2013-03-22 03:27:00,
2013-03-21 22:37:00,16.0,7.7,29.99,SW,231,1.4,1.8,69,0.00,,,0.01,WUHU216HW,2013-03-22 03:37:00,
2013-03-21 22:47:00,15.8,7.5,29.99,SW,225,1.5,1.8,69,0.00,,,0.01,WUHU216HW,2013-03-22 03:47:00,
2013-03-21 22:57:00,15.5,7.3,29.99,SW,225,1.4,1.8,69,0.00,,,0.01,WUHU216HW,2013-03-22 03:57:00,
2013-03-21 23:08:00,15.3,6.7,29.98,SW,232,1.4,1.8,68,0.00,,,0.01,WUHU216HW,2013-03-22 04:08:00,
2013-03-21 23:19:00,15.1,6.5,29.99,SW,229,1.4,2.0,68,0.00,,,0.01,WUHU216HW,2013-03-22 04:19:00,
2013-03-21 23:29:00,14.8,6.6,29.99,WSW,257,1.3,2.8,69,0.00,,,0.01,WUHU216HW,2013-03-22 04:29:00,
2013-03-21 23:39:00,15.1,6.9,29.99,WSW,250,1.6,3.2,69,0.00,,,0.01,WUHU216HW,2013-03-22 04:39:00,
2013-03-21 23:50:00,14.8,6.6,29.99,WSW,244,1.1,2.0,69,0.00,,,0.01,WUHU216HW,2013-03-22 04:50:00,